Weather in Malinovo

Russia / Oryol Oblast     52°46′00″N   37°51′36″E
temp.,
°C
wind,
m/s
gust,
m/s
humid.,
%
clouds,
%
prec.,
mm/h
press.,
hPa
HPBL,
m
14 august, sun
sun1400:00+20ene3474100 0.0 102077
03:00+20ese2366100 0.0 101978
06:00+20nne1170100 0.1 101918
09:00+20ne2478100 0.6 1020130
12:00+21ene4772100 0.3 1019233
15:00+22ene4864100 0.3 1019353
18:00+22ne486285 0.0 1018210
21:00+20ene486037 0.0 1018137
15 august, mon
mon1500:00+18ene4116411 0.0 1018186
03:00+18ne496678 0.0 1017165
06:00+17e4107126 0.0 1017193
09:00+23e585122 0.0 1017365
12:00+28e783784 0.0 10171344
15:00+30e783480 0.0 10161885
18:00+28e5104285 0.0 1016400
21:00+23ene5135096 0.0 1016260
16 august, tue
tue1600:00+23e71647100 0.0 1016464
03:00+21e6144748 0.0 1017408
06:00+20e71544100 0.0 1017394
09:00+23ese8134093 0.0 1018512
12:00+27e81030100 0.0 10171030
15:00+29e7927100 0.0 10161485
18:00+27e483792 0.0 1016297
21:00+23e41040100 0.0 1016188
17 august, wed
wed1700:00+23ene4542100 0.0 101583
03:00+22e51049100 0.0 1015195
06:00+21e5134795 0.0 1014263
09:00+22e4114086 0.0 1014324
12:00+24e61142100 0.0 1015521
15:00+30ese8102893 0.0 10141675
18:00+28e6123271 0.0 1013568
21:00+25ene7163783 0.0 1013504
18 august, thu
thu1800:00+22e6164012 0.0 1013435
03:00+20ene5144359 0.0 1014307
06:00+20ene6154678 0.0 1013367
09:00+24ene8134265 0.0 1013553
12:00+29e8103171 0.0 10131198
15:00+30e8103097 0.0 10131676
18:00+28e71134100 0.0 1013606
21:00+25ene61439100 0.0 1013465